Location: Auckland
(36.8670°S, 174.7670°E)
Time: 15:21:05
(UTC+12:00)

Envisat - Visible Passes

Search period start: 25 June 2019 00:00
Search period end: 05 July 2019 00:00
Orbit: 764 x 766 km, 98.1° (Epoch: 24 June)

Date Brightness Start Highest point End Pass type
(mag) Time Alt. Az. Time Alt. Az. Time Alt. Az.
25 Jun 4.8 06:00:09 10° NE 06:04:36 31° ESE 06:09:06 10° S visible
25 Jun 4.9 18:16:14 12° ENE 18:16:14 12° ENE 18:17:24 10° ENE visible
25 Jun 4.0 19:56:25 41° NW 19:56:25 41° NW 19:59:47 10° NNW visible
26 Jun 5.7 05:25:35 10° E 05:28:15 14° ESE 05:30:55 10° SSE visible
26 Jun 3.1 07:01:37 10° N 07:06:40 64° W 07:11:48 10° SSW visible
26 Jun 3.5 19:19:10 44° NE 19:19:10 44° NE 19:22:58 10° N visible
26 Jun 5.9 20:59:21 11° W 20:59:21 11° W 20:59:44 10° WNW visible
27 Jun 3.7 06:25:00 10° NNE 06:29:58 55° ESE 06:35:00 10° S visible
27 Jun 4.2 18:41:55 22° ENE 18:41:55 22° ENE 18:45:04 10° NNE visible
27 Jun 4.9 20:22:06 27° WNW 20:22:06 27° WNW 20:24:46 10° NW visible
28 Jun 5.1 05:49:22 10° ENE 05:53:28 25° ESE 05:57:35 10° SSE visible
28 Jun 3.6 19:44:51 51° NNW 19:44:51 51° NNW 19:48:37 10° NNW visible
29 Jun 5.9 05:15:43 10° ESE 05:17:10 11° ESE 05:18:38 10° SE visible
29 Jun 3.0 06:50:19 10° N 06:55:26 82° WNW 07:00:37 10° SSW visible
29 Jun 3.6 19:07:36 38° NE 19:07:36 38° NE 19:11:31 10° NNE visible
29 Jun 5.6 20:47:47 16° W 20:47:47 16° W 20:49:12 10° WNW visible
30 Jun 4.2 06:13:59 10° NE 06:18:47 43° ESE 06:23:38 10° S visible
30 Jun 4.5 18:30:20 18° ENE 18:30:20 18° ENE 18:33:09 10° NE visible
30 Jun 4.4 20:10:31 35° WNW 20:10:31 35° WNW 20:13:49 10° NW visible
01 Jul 5.4 05:38:43 10° ENE 05:42:21 20° ESE 05:45:59 10° SSE visible
01 Jul 3.2 19:33:15 58° N 19:33:15 58° N 19:37:23 10° N visible
02 Jul 3.2 06:39:06 10° NNE 06:44:12 78° ESE 06:49:22 10° S visible
02 Jul 3.8 18:56:00 31° ENE 18:56:00 31° ENE 18:59:58 10° NNE visible
02 Jul 5.2 20:36:11 21° WNW 20:36:11 21° WNW 20:38:29 10° NW visible
03 Jul 4.6 06:03:02 10° NE 06:07:37 34° ESE 06:12:14 10° S visible
03 Jul 4.7 18:18:44 14° E 18:18:44 14° E 18:20:58 10° ENE visible
03 Jul 3.8 19:58:55 47° WNW 19:58:55 47° WNW 20:02:46 10° NNW visible
04 Jul 5.7 05:28:15 10° E 05:31:14 16° ESE 05:34:13 10° SSE visible
04 Jul 3.2 07:04:42 10° N 07:09:43 58° W 07:14:48 10° SSW visible
04 Jul 3.1 19:21:39 55° NE 19:21:39 55° NE 19:26:04 10° N visible
04 Jul 5.9 21:01:51 12° W 21:01:51 12° W 21:02:26 10° W visible
